Ocean City, MD

1:03 AM EDT on March 27, 2017 (GMT -0400)
Ocean City Municipal

Weather History for KOXB - June, 2014

Change the Weather History Date:

Tuesday, June 17, 2014

  Actual Average (KSBY) Record (KSBY)
Temperature  
Mean Temperature 81 °F -  
Max Temperature 89 °F 81 °F 98 °F (1957)
Min Temperature 73 °F 63 °F 47 °F (1961)
Cooling Degree Days 16    
Growing Degree Days 31 (Base 50)    
Moisture  
Dew Point 72 °F    
Average Humidity 83    
Maximum Humidity 96    
Minimum Humidity 59    
Precipitation  
Precipitation 0.00 in - - ()
Sea Level Pressure  
Sea Level Pressure 30.06 in    
Wind  
Wind Speed 6 mph (SSW)    
Max Wind Speed 12 mph    
Max Gust Speed -    
Visibility 6 miles    
Events      
Averages and records for this station are not official NWS values.
T = Trace of Precipitation, MM = Missing Value Source: NWS Daily Summary

Daily Weather History Graph

Daily Weather History Graph

Search for Another Location

Airport or City:

Trip Planner

Search our weather history database for the weather conditions in past years. The results will help you decide how hot, cold, wet, or windy it might be!

Date:

Astronomy

Jun. 17, 2014 Rise Set
Actual Time 5:36 AM EDT 8:26 PM EDT
Civil Twilight 5:04 AM EDT 8:58 PM EDT
Nautical Twilight 4:25 AM EDT 9:37 PM EDT
Astronomical Twilight 3:39 AM EDT 10:23 PM EDT
Moon 11:58 PM EDT (6/17) 10:44 AM EDT (6/17)
Length of Visible Light 15h 53m
Length of Day
14h 49m
Waning Gibbous, 73% of the Moon is Illuminated
Jun 17
Waning Gibbous
Jun 19
Last Quarter
Jun 27
New
Jul 5
First Quarter
Jul 12
Full

Hourly Weather History & Observations

Time (EDT) Temp. Heat Index Dew Point Humidity Pressure Visibility Wind Dir Wind Speed Gust Speed Precip Events Conditions
12:26 AM 73.0 °F - 71.1 °F 93% 30.10 in 5.0 mi SSW 8.1 mph - N/A   Overcast
12:53 AM 73.0 °F - 71.1 °F 93% 30.10 in 4.0 mi SSW 8.1 mph - N/A   Overcast
1:53 AM 73.0 °F - 71.1 °F 93% 30.09 in 3.0 mi South 3.5 mph - N/A   Overcast
2:02 AM 73.0 °F - 71.1 °F 93% 30.08 in 2.5 mi Variable 3.5 mph - N/A   Overcast
2:13 AM 73.0 °F - 71.1 °F 93% 30.08 in 3.0 mi Variable 3.5 mph - N/A   Overcast
2:41 AM 73.0 °F - 71.1 °F 93% 30.08 in 4.0 mi SSW 4.6 mph - N/A   Mostly Cloudy
2:53 AM 73.0 °F - 71.1 °F 93% 30.07 in 4.0 mi South 5.8 mph - N/A   Mostly Cloudy
3:53 AM 73.0 °F - 71.1 °F 93% 30.06 in 4.0 mi South 4.6 mph - N/A   Overcast
4:02 AM 73.0 °F - 71.1 °F 93% 30.06 in 4.0 mi South 4.6 mph - N/A   Overcast
4:53 AM 73.0 °F - 71.1 °F 93% 30.06 in 4.0 mi SSW 5.8 mph - N/A   Partly Cloudy
5:53 AM 73.0 °F - 71.1 °F 93% 30.07 in 3.0 mi SW 4.6 mph - N/A   Scattered Clouds
6:00 AM 73.0 °F - 72.0 °F 96% 30.07 in 2.5 mi SSW 3.5 mph - N/A   Partly Cloudy
6:10 AM 73.0 °F - 72.0 °F 96% 30.07 in 3.0 mi SSW 3.5 mph - N/A   Partly Cloudy
6:53 AM 75.0 °F - 73.0 °F 94% 30.07 in 3.0 mi SSW 3.5 mph - N/A   Clear
7:53 AM 80.1 °F 85.1 °F 75.0 °F 85% 30.09 in 7.0 mi West 5.8 mph - N/A   Clear
8:53 AM 82.9 °F 90.2 °F 75.0 °F 77% 30.10 in 9.0 mi WSW 5.8 mph - N/A   Clear
9:53 AM 87.1 °F 94.5 °F 73.0 °F 63% 30.09 in 10.0 mi WNW 5.8 mph - N/A   Clear
10:53 AM 89.1 °F 97.0 °F 73.0 °F 59% 30.09 in 10.0 mi Variable 3.5 mph - N/A   Clear
11:53 AM 82.9 °F 88.8 °F 73.0 °F 72% 30.09 in 7.0 mi South 5.8 mph - N/A   Mostly Cloudy
12:53 PM 84.0 °F 91.2 °F 73.9 °F 72% 30.08 in 7.0 mi SSE 5.8 mph - N/A   Mostly Cloudy
1:53 PM 80.1 °F 84.2 °F 73.0 °F 79% 30.07 in 6.0 mi Variable 5.8 mph - N/A   Haze
2:53 PM 82.0 °F 87.9 °F 73.9 °F 76% 30.05 in 7.0 mi South 6.9 mph - N/A   Clear
3:53 PM 84.0 °F 91.2 °F 73.9 °F 72% 30.04 in 8.0 mi South 8.1 mph - N/A   Clear
4:53 PM 84.0 °F 90.2 °F 73.0 °F 69% 30.03 in 9.0 mi SSW 9.2 mph - N/A   Clear
5:53 PM 84.0 °F 90.2 °F 73.0 °F 69% 30.01 in 9.0 mi Variable 5.8 mph - N/A   Clear
6:53 PM 82.0 °F 87.9 °F 73.9 °F 76% 30.02 in 8.0 mi Variable 6.9 mph - N/A   Clear
7:53 PM 82.0 °F 87.4 °F 73.0 °F 74% 30.02 in 8.0 mi SW 9.2 mph - N/A   Clear
8:53 PM 80.1 °F 83.8 °F 72.0 °F 76% 30.01 in 9.0 mi SW 11.5 mph - N/A   Clear
9:53 PM 80.1 °F 83.8 °F 72.0 °F 76% 30.01 in 9.0 mi SW 10.4 mph - N/A   Clear
10:53 PM 80.1 °F 83.8 °F 72.0 °F 76% 30.00 in 10.0 mi SW 9.2 mph - N/A   Clear
11:53 PM 80.1 °F 84.2 °F 73.0 °F 79% 29.99 in 9.0 mi WSW 9.2 mph - N/A   Clear